Back to catalog

STARLINK-4544

AliveCommunicationsVLEO
NORAD 53394·PAYLOAD·🇺🇸 United States

Launched Aug 10, 2022 from Cape Canaveral Space Force Station

Loading…

Next Passes (next 24 hours)

TLE

FreshSource: CelesTrak SupGP

Epoch: Sep 15, 2026, 02:44 UTC

1 53394C 22097G   26258.11437500  .00043412  00000+0  13962-2 0  2582
2 53394  53.1603 332.6504 0001229  88.4146 133.7890 15.31676429    18

Track STARLINK-4544 in real time with AllMySat

Download on the App Store